Location: *
(43.9900°N, 3.4811°E)
Time: 17:56:24
(UTC+00:00)

Cosmos 2219 Rocket - Pass Details

Date: 25 August 2019
Orbit: 829 x 845 km, 71.0° (Epoch: 16 October)

Event Time Altitude Azimuth Distance (km) Brightness Sun altitude
Rises 23:23:56 0° 337° (NNW) 3,382 6.3 -35.1°
Reaches altitude 10° 23:26:25 10° 341° (NNW) 2,444 5.4 -35.2°
Enters shadow 23:29:59 38° 360° (N) 1,244 3.4 -35.3°
